Regional Weather Roundup
Issued by NWS

Home | Current Version | Previous Version | Graphics & Text | Print | Product List | Glossary On
Versions: 1 2 3 4 5 6 7 8 9 10 11 12 13 14 15 16 17 18 19 20 21 22 23 24 25 26 27 28 29 30 31 32 33 34 35 36 37 38 39 40 41 42 43 44 45 46 47 48 49 50
000
ASUS43 KFSD 221010
RWRSD

WEATHER ROUNDUP FOR SOUTH DAKOTA
NATIONAL WEATHER SERVICE SIOUX FALLS SD
500 AM CDT TUE MAY 22 2018

NOTE: "FAIR" INDICATES FEW OR NO CLOUDS BELOW 12,000 FEET WITH NO
SIGNIFICANT WEATHER AND/OR OBSTRUCTIONS TO VISIBILITY.


SDZ001>005-009-010-012>017-221100-
NORTHWEST AND NORTH CENTRAL SOUTH DAKOTA

CITY           SKY/WX    TMP DP  RH WIND       PRES   REMARKS
BUFFALO          N/A     55  46  71 NE5       29.85S
FAITH            N/A     54  50  86 SE10      29.89F
MOBRIDGE       PTCLDY    57  53  86 E8        29.90F
$$

SDZ012>016-024>037-041>051-057-063-072>074-221100-
SOUTHWEST AND SOUTH CENTRAL SOUTH DAKOTA

CITY           SKY/WX    TMP DP  RH WIND       PRES   REMARKS
RAPID CTY ARPT CLEAR     50  48  93 MISG      29.91R
PIERRE         PTCLDY    54  53  97 SE7       29.91R
CUSTER         PTCLDY    51  42  71 NW6       30.01R
ELLSWORTH AFB  PTCLDY    56  53  90 N9        29.91R
PHILIP         PTCLDY    56  55  97 E6        29.89S
PINE RIDGE     CLEAR     53  51  93 CALM      29.92R
SPEARFISH      FAIR      52  43  71 S7        29.95R
WINNER         FAIR      64  55  72 SE10      29.91F
$$

SDZ004>011-016>023-039-040-221100-
NORTHEAST SOUTH DAKOTA

CITY           SKY/WX    TMP DP  RH WIND       PRES   REMARKS
ABERDEEN       CLEAR     49  49 100 CALM      29.96F FOG
WATERTOWN      FOG       52  52 100 SE7       29.98S VSB 1/4
BROOKINGS      FOG       52  51  97 SE7       30.00S VSB 1/4
SISSETON         N/A     57  57 100 SE6       29.98R
$$

SDZ017-020-022-023-036>040-048>070-221100-
SOUTHEAST SOUTH DAKOTA

CITY           SKY/WX    TMP DP  RH WIND       PRES   REMARKS
SIOUX FALLS    FOG       46  46 100 NE3       30.00R VSB 1
HURON          CLEAR     53  52  96 MISG      29.96S FOG
CHAMBERLAIN    MOCLDY    57  57 100 E5        29.93F FOG
MITCHELL       CLEAR     54  52  93 E7        29.96S FOG
YANKTON        CLOUDY    57  56  96 E7        29.97S FOG
$$

ABBREVIATIONS USED IN REMARKS
   TC - TEMPERATURE IN CELSIUS
  WCI - WIND CHILL INDEX
   HX - HEAT INDEX
  VSB - VISIBILITY





USA.gov is the U.S. government's official web portal to all federal, state and local government web resources and services.